Home > Weather > Augsburg > Past weeks

Flag for Germany Past Weather in Augsburg, Bavaria, Germany — Yesterday and Last 2 Weeks

Now
61 °F

Scattered clouds.


Feels Like: 61 °F
Forecast: 52 / 67 °F
Wind: 9 mph from South

Location: Augsburg Airport

Current Time: May 30, 2016 at 10:27:24 PM

Latest Report: May 30, 2016 at 8:50 PM


Visibility: N/A

Pressure: 29.80 "Hg

Humidity: 72%

Dew Point: 52 °F

Location of AugsburgLocation

Past Weather in Augsburg — Graph

°F

Augsburg Temperature Yesterday

Maximum temperature yesterday: 73 °F (at 12:50 PM)
Minimum temperature yesterday: 57 °F (at 7:01 PM)
Average temperature yesterday: 67 °F

High & Low Weather Summary for the Past Weeks

 TemperatureHumidityPressure
High84 °F (May 22, 3:50 PM)100% (May 17, 6:20 AM)30.18 "Hg (May 17, 6:20 AM)
Low41 °F (May 16, 4:20 PM)27% (May 22, 3:50 PM)29.59 "Hg (May 29, 4:50 PM)
Average60 °F70%29.94 "Hg
* Reported May 15 8:20 PM — May 30 8:50 PM, Augsburg, Weather by CustomWeather, © 2016

Note: Actual official high and low records may vary slightly from our data, if they occured in-between our weather recording intervals... More about our weather records

Advertising

Augsburg Weather History for the Previous 24 Hours

Scroll right to see more
 ConditionsComfort  
Time TempWeatherWind HumidityBarometerVisibility
8:50 PM
Mon, May 30
61 °FScattered clouds.9 mph72%29.80 "HgN/A
8:20 PM61 °FScattered clouds.12 mph72%29.77 "HgN/A
7:50 PM64 °FBroken clouds.7 mph60%29.77 "HgN/A
7:20 PM64 °FBroken clouds.9 mph60%29.77 "HgN/A
6:50 PM66 °FBroken clouds.10 mph56%29.77 "HgN/A
6:20 PM68 °FScattered clouds.13 mph53%29.74 "HgN/A
5:50 PM68 °FScattered clouds.13 mph53%29.74 "HgN/A
5:20 PM70 °FScattered clouds.14 mph50%29.74 "HgN/A
4:50 PM68 °FScattered clouds.10 mph56%29.74 "HgN/A
4:20 PM68 °FScattered clouds.10 mph56%29.74 "HgN/A
3:50 PM66 °FScattered clouds.12 mph56%29.74 "HgN/A
3:20 PM68 °FBroken clouds.12 mph56%29.74 "HgN/A
2:50 PM68 °FBroken clouds.14 mph56%29.74 "HgN/A
2:20 PM66 °FBroken clouds.18 mph56%29.74 "HgN/A
1:50 PM66 °FBroken clouds.20 mph60%29.74 "HgN/A
1:20 PM64 °FBroken clouds.15 mph60%29.74 "HgN/A
12:50 PM63 °FBroken clouds.16 mph64%29.74 "HgN/A
12:20 PM63 °FBroken clouds.17 mph68%29.74 "HgN/A
11:50 AM63 °FPartly sunny.17 mph68%29.74 "HgN/A
11:20 AM63 °FBroken clouds.13 mph77%29.74 "HgN/A
10:50 AM63 °FPartly sunny.15 mph73%29.74 "HgN/A
10:20 AM61 °FPartly sunny.15 mph83%29.71 "HgN/A
9:50 AM61 °FPartly sunny.15 mph77%29.71 "HgN/A
9:20 AM61 °FPartly sunny.16 mph83%29.71 "HgN/A
8:50 AM59 °FDrizzle. Partly sunny.14 mph94%29.71 "HgN/A
8:20 AM57 °FDrizzle. Partly sunny.13 mph100%29.71 "HgN/A
7:50 AM57 °FDrizzle. Partly sunny.9 mph100%29.71 "HgN/A
7:20 AM57 °FDrizzle. Partly sunny.12 mph94%29.71 "HgN/A
6:50 AM57 °FDrizzle. Broken clouds.13 mph100%29.71 "HgN/A
6:20 AM57 °FLight rain. Broken clouds.12 mph94%29.71 "HgN/A
Weather by CustomWeather, © 2016

See weather overviewHow to use our weather pages